Find Starlink 31428

NORAD ID: 59367 Int'l Des: 2024-060 Owner: SPXS Country: US Constellation: starlink operational
LEOCIRCULAR

Current View

Loading 3D Globe...

About Starlink 31428

Starlink 31428 (NORAD 59367) is a starlink constellation satellite (v2 mini) launched Mar 31, 2024 by SPXS of US. It operates in LEO, CIRCULAR orbit with a mass of 730.00 kg.

About Starlink 31428

Description loading...

Upcoming Passes

Passes for default location (London). Set your location on the main map for personalized predictions.

Altitude History

Loading altitude history...

Two-Line Element Set

1 59367U 24060V 26171.33775175 .00003502 00000-0 13676-3 0 9993
2 59367 43.0028 39.9714 0000939 55.9354 304.1587 15.27574979125769
Epoch: Jun 20, 2026 • Age: 32 hours

Current Status

Altitude 496.2 km
Velocity 7.62 km/s
Sub-Earth Point -41.25°S, 122.68°E
Launch Date Mar 31, 2024
Age 2.2 years
Type internet

Technical Details

Classification Payload
Mass 730.00 kg
Dry Mass 700.00 kg
Total Mass 730.00 kg
Length 0.30 m
Diameter 4.10 m
Span 29.00 m
Shape Box + pan
Manufacturer SPXS
Bus Type Starlink V2M
Phase Status In Orbit
Owner/State SPXS/US

Most Searched